Regional Weather Roundup
Issued by NWS Cleveland, OH

Home | Current Version | Previous Version | Graphics & Text | Print | Product List | Glossary On
Versions: 1 2 3 4 5 6 7 8 9 10 11 12 13 14 15 16 17 18 19 20 21 22 23 24 25 26 27 28 29 30 31 32 33 34 35 36 37 38 39 40 41 42 43 44 45 46 47 48 49 50
000
ASUS41 KCLE 221902
RWRCLE
OHIO REGIONAL WEATHER ROUNDUP
NATIONAL WEATHER SERVICE CLEVELAND, OH
200 PM EST SAT NOV 22 2014

NOTE: "FAIR" INDICATES FEW OR NO CLOUDS BELOW 12,000 FEET WITH NO
SIGNIFICANT WEATHER AND/OR OBSTRUCTIONS TO VISIBILITY.

OHZ001>008-015>018-024>027-034-035-043-044-222000-
   NORTHWEST OHIO

CITY           SKY/WX    TMP DP  RH WIND       PRES   REMARKS
DEFIANCE       CLOUDY    47  42  83 SW10      30.03F
FINDLAY        CLOUDY    49  41  74 SW21G29   30.03F
TOLEDO EXPRESS LGT RAIN  45  40  82 SW13G22   30.02F
TOLEDO EXEC    CLOUDY    47  39  74 SW20G28   30.03F
LIMA           CLOUDY    50  40  68 SW20      30.06F
$$

OHZ009>014-019>023-028>033-038-089-222000-
   NORTHEAST OHIO

CITY           SKY/WX    TMP DP  RH WIND       PRES   REMARKS
CLE-HOPKINS    CLOUDY    42  36  79 S14       30.09F
CLE-LAKEFRONT  CLOUDY    44  37  76 S16G25    30.05F
CUY CO. ARPT   CLOUDY    45  32  61 SW15G25   30.07F
LORAIN-ELYRIA  CLOUDY    45  39  79 SW15      30.06F
ASHTABULA      CLOUDY    37  34  89 S14G22    30.08F
AKRON-CANTON   CLOUDY    40  34  79 SW14      30.12F
WOOSTER        MOSUNNY  N/A N/A N/A SW15      30.11
MANSFIELD      CLOUDY    49  39  68 SW24G37   30.08F
YOUNGSTOWN     CLOUDY    39  36  89 SW12      30.11F
$$

OHZ042-051>053-060>062-070>072-077>081-222000-
  SOUTHWEST OHIO

CITY           SKY/WX    TMP DP  RH WIND       PRES   REMARKS
CINC-COVINGTON PTSUNNY   59  35  40 S14G26    30.15F
CINC-LUNKEN    MOSUNNY   60  37  42 SW15G29   30.15F
HAMILTON       PTSUNNY   60  38  43 SW8G18    30.15F
DAYTON         CLOUDY    50  37  61 S16G24    30.13F
WRIGHT-PAT AFB MOSUNNY   52  40  64 SW12      30.13F
DAYTON GENERAL CLOUDY    55  38  52 SW12      30.13F
WILMINGTON     MOSUNNY   54  37  52 SW14G22   30.14F
$$

OHZ036-037-039>041-045>050-054>059-063>069-073>076-082>088-222000-
  CENTRAL AND SOUTHEAST OHIO

CITY           SKY/WX    TMP DP  RH WIND       PRES   REMARKS
COLUMBUS       CLOUDY    43  32  65 S9        30.16F
OSU AIRPORT    PTSUNNY   45  33  63 S13       30.14F
BOLTON FIELD   PTSUNNY   43  30  61 S8        30.19S
RICKENBACK AFB NOT AVBL
NEWARK         CLOUDY    41  32  70 S6        30.16F
MARION         CLOUDY    44  36  73 S14       30.11F
LANCASTER      CLOUDY    48  33  56 S8        30.17F
ZANESVILLE     PTSUNNY   43  32  65 S7        30.18F
NEW PHILLY     PTSUNNY   38  30  73 SE5       30.18F
$$



USA.gov is the U.S. government's official web portal to all federal, state and local government web resources and services.